Content
SEND FEEDBACK

United Kingdom Flag

SOUTH ACTON, ENGLAND


Home > Europe > United Kingdom > England
Elevation: 5 meters     Latitude: 51 30N     Longitude: 000 18W

WEATHER
 
SELECT A DAY
Number of Records: 176,548;   Date Range: 7/1/96 - 3/22/16
 
SHARE

PRINT THIS DATA

[ ← Previous Day ]
WEATHER ALMANAC - 1 OCTOBER, 2013
[ Next Day → ]
[ °F ]   °C
Weather ElementAverageHighLow
Temperature14.6 °C17.2 °C (3:50 pm)11 °C (4:50 am)
Dewpoint10.6 °C12 °C (10:50 am)9 °C (1:50 am)
Humidity75.8 %94 % (4:50 am)54 % (3:50 pm)
Barometer1008.8 hPa1010.2 hPa (8:50 pm)1008.1 hPa (12:50 am)
Wind Speed16.1 km/h22.2 km/h (2:50 pm)
Weather ElementAverage
Visibility9.8 km
Wind DirectionESE (97.7 °)

Weather ElementTotal
Precipitation---
Heating Degree Days4.2 (Base 18.3)
Growing Degree Days4.1 (Base 10)
Averaged from 31 records on 1 October, 2013
WEATHER CONDITIONS BREAKOUT
WIND DIRECTION BREAKOUT
WEATHER BY HOUR - 1 OCTOBER, 2013
[ °F ]   °C
Local TimeTemperatureDewpointHumidityBarometerVisibilityWind DirectionWind SpeedGust SpeedPrecipitationEventsConditions
12:50 AM12 °C10 °C88 %1008.1 hPa10 kmENE (60°)7.4 km/hMostly Cloudy
1:50 AM12 °C9 °C82 %1008.1 hPa9 kmNE (40°)7.4 km/hPartly Cloudy
2:50 AM12 °C10 °C88 %1008.1 hPa8 kmENE (70°)14.8 km/hPartly Cloudy
3:50 AM11.7 °C10 °C84 %1008.5 hPa8 kmEast (80°)7.4 km/h
3:50 AM12 °C10 °C88 %1008.1 hPa8 kmEast (80°)7.4 km/h
4:50 AM11 °C10 °C94 %1008.1 hPa6.9 kmEast (80°)9.3 km/h
5:50 AM11 °C10 °C94 %1008.1 hPa8 kmEast (90°)9.3 km/h
6:50 AM12 °C10 °C88 %1008.1 hPa6 kmEast (80°)14.8 km/hHaze
6:50 AM11.7 °C10 °C84 %1008.5 hPa6.4 kmEast (80°)14.8 km/hHaze
7:50 AM12 °C10 °C88 %1008.1 hPa6 kmEast (90°)9.3 km/hHaze
8:50 AM13 °C11 °C88 %1009.1 hPa6 kmEast (80°)11.1 km/hHaze
9:50 AM13.9 °C11.1 °C79 %1009.5 hPa6.4 kmEast (100°)14.8 km/hHaze
9:50 AM14 °C11 °C82 %1009.1 hPa6.9 kmEast (100°)14.8 km/hHaze
10:50 AM16 °C12 °C77 %1009.1 hPa8 kmEast (100°)20.4 km/hHaze
11:50 AM16 °C12 °C77 %1009.1 hPa10 kmESE (110°)20.4 km/hMostly Cloudy
12:50 PM17 °C12 °C72 %1009.1 hPa10 kmEast (100°)20.4 km/hMostly Cloudy
12:50 PM16.7 °C11.7 °C63 %1009.1 hPa14.5 kmEast (100°)20.4 km/hMostly Cloudy
1:50 PM17 °C12 °C72 %1008.1 hPa10 kmEast (100°)20.4 km/hOvercast
2:50 PM17 °C11 °C68 %1009.1 hPa10 kmSE (130°)22.2 km/hOvercast
3:50 PM17.2 °C10.6 °C54 %1009.1 hPa25.7 kmESE (120°)22.2 km/hOvercast
3:50 PM17 °C10 °C63 %1008.1 hPa10 kmESE (120°)22.2 km/hOvercast
4:50 PM17 °C10 °C63 %1009.1 hPa10 kmSE (130°)22.2 km/hOvercast
5:50 PM17 °C10 °C63 %1009.1 hPa10 kmSE (130°)20.4 km/hOvercast
6:50 PM16 °C10 °C68 %1009.1 hPa10 kmEast (100°)20.4 km/hOvercast
6:50 PM15.6 °C10.6 °C63 %1009.5 hPa14.5 kmEast (100°)20.4 km/hOvercast
7:50 PM16 °C11 °C72 %1009.1 hPa10 kmESE (110°)14.8 km/hOvercast
8:50 PM16 °C11 °C72 %1010.2 hPa10 kmESE (110°)14.8 km/hOvercast
9:50 PM15.6 °C11.1 °C67 %1010.2 hPa14.5 kmESE (110°)16.7 km/hOvercast
9:50 PM16 °C11 °C72 %1010.2 hPa10 kmESE (110°)16.7 km/hOvercast
10:50 PM16 °C10 °C68 %1009.1 hPa10 kmESE (110°)20.4 km/hOvercast
11:50 PM16 °C10 °C68 %1009.1 hPa10 kmESE (110°)22.2 km/hOvercast
Hourly data recorded from EGWU, located 0 kilometers away from South Acton, England




STORIES FROM OUR PARTNERS